M0SWV Weather Reports


time (UTC)temp
F
wind
direction
speed
knots
gust
knots
rain 1hr
in
rain 24hr
in
rain mn
in
humidity
%
barometer
mb
20260507170044 53 288 1.7 7.0 0.00 0.00 0.00 78 1015.9
20260507164530 53 272 1.7 6.1 0.00 0.00 0.00 78 1015.9
20260507163031 54 266 1.7 6.1 0.00 0.00 0.00 78 1015.8
20260507161530 54 0 1.7 6.1 0.00 0.00 0.00 77 1015.6
20260507160032 55 257 0.0 9.6 0.00 0.00 0.00 75 1015.7
20260507154530 55 249 1.7 8.7 0.00 0.00 0.00 72 1015.7
20260507153031 55 229 3.5 8.7 0.00 0.00 0.00 73 1015.6
20260507151529 55 0 2.6 11.3 0.00 0.00 0.00 73 1015.7
20260507150030 57 242 1.7 9.6 0.00 0.00 0.00 72 1015.6
20260507144530 57 223 5.2 9.6 0.00 0.00 0.00 70 1015.7
20260507143030 57 172 3.5 7.8 0.00 0.00 0.00 68 1015.8
20260507141531 58 0 2.6 8.7 0.00 0.00 0.00 68 1015.8
20260507140035 58 82 3.5 8.7 0.00 0.00 0.00 67 1016.0
20260507134530 57 158 2.6 8.7 0.00 0.00 0.00 69 1016.1
20260507133037 58 153 2.6 7.0 0.00 0.00 0.00 65 1016.1
20260507131532 58 124 2.6 7.8 0.00 0.00 0.00 68 1016.1
20260507130036 58 92 4.3 10.4 0.00 0.00 0.00 65 1016.1
20260507124529 58 164 5.2 9.6 0.00 0.00 0.00 67 1016.1
20260507123034 57 195 5.2 10.4 0.00 0.00 0.00 66 1016.2
20260507121533 56 137 2.6 6.1 0.00 0.00 0.00 71 1016.4
20260507120033 56 250 6.1 11.3 0.00 0.00 0.00 70 1016.4
20260507114531 55 205 2.6 7.8 0.00 0.00 0.00 73 1016.4
20260507113029 55 232 3.5 7.8 0.00 0.00 0.00 71 1016.6
20260507111530 56 117 3.5 7.0 0.00 0.00 0.00 72 1016.4
20260507110030 56 246 1.7 6.1 0.00 0.00 0.00 75 1016.5
20260507104532 56 144 2.6 6.1 0.00 0.00 0.00 74 1016.7
20260507103036 55 189 2.6 6.1 0.00 0.00 0.00 77 1016.6
20260507101530 54 0 0.0 2.6 0.00 0.00 0.00 78 1016.8
20260507100031 52 254 0.9 4.3 0.00 0.00 0.00 82 1017.0
20260507094533 51 101 0.0 3.5 0.00 0.00 0.00 84 1017.0
20260507093032 49 119 0.9 3.5 0.00 0.00 0.00 85 1017.0
20260507091538 48 219 0.9 5.2 0.00 0.00 0.00 86 1017.0
20260507090034 47 100 0.9 2.6 0.00 0.00 0.00 87 1017.1
20260507084540 47 0 0.0 2.6 0.00 0.00 0.00 87 1017.1
20260507083030 46 0 0.0 2.6 0.00 0.00 0.00 88 1017.1
20260507081530 46 114 0.9 2.6 0.00 0.00 0.00 88 1017.1
20260507080030 45 0 0.0 0.0 0.00 0.00 0.00 90 1017.2
20260507074533 45 0 0.0 0.0 0.00 0.00 0.00 91 1017.1
20260507073030 44 0 0.0 0.0 0.00 0.00 0.00 91 1017.0
20260507071533 44 0 0.0 0.0 0.00 0.00 0.00 92 1017.0
20260507070039 44 0 0.0 0.0 0.00 0.00 0.00 92 1016.9
20260507064529 43 0 0.0 0.0 0.00 0.00 0.00 92 1016.7
20260507063033 43 0 0.0 0.9 0.00 0.00 0.00 92 1016.8
20260507061533 43 98 0.9 2.6 0.00 0.00 0.00 92 1016.7
20260507060033 43 0 0.0 0.0 0.00 0.00 0.00 92 1016.6
20260507054532 43 0 0.0 0.0 0.00 0.00 0.00 92 1016.6
20260507053033 43 0 0.0 1.7 0.00 0.00 0.00 92 1016.5
20260507051532 43 0 0.0 0.0 0.00 0.00 0.00 92 1016.5
20260507050042 42 0 0.0 0.9 0.00 0.00 0.00 92 1016.5
20260507044534 42 0 0.0 0.9 0.00 0.00 0.00 92 1016.4
20260507043030 43 0 0.0 0.9 0.00 0.00 0.00 91 1016.4
20260507041532 43 0 0.0 1.7 0.00 0.00 0.00 91 1016.2
20260507040031 43 92 0.0 0.9 0.00 0.00 0.00 91 1016.3
20260507034534 43 115 0.9 1.7 0.00 0.00 0.00 91 1016.2
20260507033036 43 0 0.0 2.6 0.00 0.00 0.00 90 1016.2
20260507031537 43 109 0.0 1.7 0.00 0.00 0.00 90 1016.6
20260507030031 43 123 0.0 1.7 0.00 0.00 0.00 90 1016.5
20260507024537 44 0 0.0 1.7 0.00 0.00 0.00 90 1016.6
20260507023033 44 99 0.0 0.9 0.00 0.00 0.00 90 1016.4
20260507021535 44 0 0.0 0.0 0.00 0.00 0.00 89 1016.5
20260507020030 44 0 0.0 1.7 0.00 0.00 0.00 89 1016.5
20260507014542 44 0 0.0 0.9 0.00 0.00 0.00 89 1016.6
20260507013038 44 0 0.0 0.9 0.00 0.00 0.00 88 1016.5
20260507011541 44 0 0.0 1.7 0.00 0.00 0.00 88 1016.6
20260507010040 45 0 0.0 0.0 0.00 0.00 0.00 87 1016.6
20260507004529 45 0 0.0 1.7 0.00 0.00 0.00 87 1016.5
20260507003029 45 100 0.0 0.9 0.00 0.00 0.00 86 1016.7
20260507001544 45 0 0.0 0.0 0.00 0.00 0.00 85 1016.8
20260507000038 45 140 0.0 2.6 0.00 0.00 0.00 84 1016.8
20260506234537 45 111 0.9 5.2 0.00 0.00 0.00 84 1016.7
20260506233030 46 102 0.0 1.7 0.00 0.00 0.00 84 1016.8
20260506231534 46 0 0.0 0.0 0.00 0.00 0.00 82 1016.7
20260506230031 46 0 0.0 0.0 0.00 0.00 0.00 81 1016.7
20260506224534 46 0 0.0 0.0 0.00 0.00 0.00 80 1016.7
20260506223030 47 117 0.0 2.6 0.00 0.00 0.00 79 1016.6
20260506221530 47 0 0.0 5.2 0.00 0.00 0.00 79 1016.4
20260506220035 47 79 0.9 4.3 0.00 0.00 0.00 78 1016.4
20260506214535 47 0 0.0 3.5 0.00 0.00 0.00 77 1016.3
20260506213040 48 0 0.0 3.5 0.00 0.00 0.00 76 1016.1
20260506211540 48 111 0.0 2.6 0.00 0.00 0.00 74 1016.0
20260506210039 49 86 1.7 5.2 0.00 0.00 0.00 72 1016.0
20260506204533 49 105 0.9 5.2 0.00 0.00 0.00 70 1016.0
20260506203029 50 140 1.7 5.2 0.00 0.00 0.00 67 1015.8
20260506201536 50 163 0.0 3.5 0.00 0.00 0.00 67 1015.7
20260506200033 50 88 0.0 1.7 0.00 0.00 0.00 67 1015.5
20260506194532 51 0 0.0 2.6 0.00 0.00 0.00 66 1015.4
20260506193042 51 123 1.7 3.5 0.00 0.00 0.00 64 1015.3
20260506191534 52 0 0.0 1.7 0.00 0.00 0.00 68 1015.3
20260506190032 52 0 0.0 0.0 0.00 0.00 0.00 63 1015.2
20260506184531 52 0 0.0 0.0 0.00 0.00 0.00 63 1015.1
20260506183029 53 0 0.0 0.0 0.00 0.00 0.00 61 1015.1
20260506181540 53 0 0.0 1.7 0.00 0.00 0.00 65 1015.3
20260506180030 53 116 0.9 2.6 0.00 0.00 0.00 61 1015.1
20260506174536 53 99 0.9 3.5 0.00 0.00 0.00 60 1014.9
20260506173100 54 0 0.0 3.5 0.00 0.00 0.00 60 1015.1
20260506171540 54 115 1.7 5.2 0.00 0.00 0.00 58 1014.9